Location: Bailleul
(50.3375°N, 2.8513°E)
Time: 21:23:31
(UTC+00:00)

ERS-1 Rocket - Pass Details

Date: 19 April 2021
Orbit: 753 x 757 km, 98.4° (Epoch: 18 May)

Event Time Altitude Azimuth Distance (km) Brightness Sun altitude
Exits shadow 20:14:28 17° 110° (ESE) 1,841 4.4 -12.8°
Maximum altitude 20:17:22 29° 62° (ENE) 1,359 4.1 -13.1°
Drops below altitude 10° 20:21:40 10° 3° (N) 2,291 5.9 -13.7°
Sets 20:24:13 0° 353° (N) 3,220 7.0 -14.0°
